Weather in Katenino

Russia / Chelyabinsk Oblast     53°10′41″N   61°03′25″E
temp.,
°C
wind,
m/s
gust,
m/s
humid.,
%
clouds,
%
prec.,
mm/h
press.,
hPa
HPBL,
m
28 june, tue
tue2823:00+13ssw44755 0.0 100957
02:00+11wsw48816 0.0 1008137
05:00+12sw41078100 0.0 1005201
08:00+15wsw61283100 0.7 1004553
11:00+13n81088100 0.9 1005588
14:00+13n577899 0.1 1007885
17:00+14nnw7755100 0.1 10071241
20:00+11nnw7115569 0.0 1008743
29 june, wed
wed2923:00+8nnw5105917 0.0 1010710
02:00+6nw511745 0.0 1010401
05:00+5nw511801 0.0 1010386
08:00+8nw7966100 0.0 10101070
11:00+9nw896387 0.0 10101236
14:00+9nw7971100 0.0 1011941
17:00+11nw51071100 0.0 10111097
20:00+11nnw5973100 0.0 1010744
30 june, thu
thu3023:00+10w35780 0.0 1010121
02:00+7w49885 0.0 1010148
05:00+7w48915 0.0 1009134
08:00+13wnw46707 0.0 1008360
11:00+17wnw455333 0.1 10081710
14:00+17w3457100 0.1 1007753
17:00+18sw235143 0.1 10071039
20:00+14sw2268100 0.1 100737
1 july, fri
fri123:00+13wsw356898 0.1 100887
02:00+10nnw228572 0.0 100819
05:00+11w128399 0.0 100832
08:00+14wsw227471 0.1 1008300
11:00+17wsw3458100 1.7 10091045
14:00+19ssw2448100 0.7 10082151
17:00+19e3451100 1.0 10081175
20:00+15w2471100 0.9 100993
2 july, sat
sat223:00+13ne358097 1.1 100991
02:00+12ne3687100 0.1 1009143
05:00+11ne3587100 0.1 1009140
08:00+12nne588587 0.0 1009305
11:00+16nne676932 0.0 1008808
14:00+19nne7858100 0.9 10071410
17:00+19n685196 1.0 10072102
20:00+15n4969100 0.0 1007383